Flag for USA

Past Weather in Pittsfield, Massachusetts, USA — Yesterday and Last 2 Weeks

Now
53 °F

Fog.


Feels Like: 53 °F
Forecast: 74 / 53 °F
Wind: No wind

Location: Pittsfield Municipal Airport
Current Time: Sep 26, 2020 at 3:19:46 am
Latest Report: Sep 26, 2020 at 2:32 am
Visibility: 2 mi
Pressure30.11 "Hg
Humidity: 93%
Dew Point: 51 °F
Location of PittsfieldLocation

Past Weather in Pittsfield — Graph

°F

Pittsfield Temperature Yesterday

Maximum temperature yesterday: 79 °F (at 2:54 pm)
Minimum temperature yesterday: 49 °F (at 4:54 am)
Average temperature yesterday: 58 °F

High & Low Weather Summary for the Past Weeks

 TemperatureHumidityPressure
High79 °F (Sep 25, 2:54 pm)97% (Sep 12, 1:38 am)30.60 "Hg (Sep 12, 1:38 am)
Low30 °F (Sep 22, 6:54 am)26% (Sep 22, 12:54 pm)29.75 "Hg (Sep 23, 3:54 pm)
Average55 °F73%30.13 "Hg
* Reported Sep 11 11:15 am — Sep 26 2:01 am, Pittsfield. Weather by CustomWeather, © 2020

Note: Actual official high and low records may vary slightly from our data, if they occured in-between our weather recording intervals... More about our weather records

Pittsfield Weather History for the Previous 24 Hours

Scroll right to see more
 ConditionsComfort  
Time TempWeatherWind HumidityBarometerVisibility
2:01 am
Sat, Sep 26
54 °FFog.No wind93%30.11 "Hg0 mi
1:17 am54 °FFog.No wind97%30.11 "Hg3 mi
1:05 am54 °FFog.No wind97%30.11 "Hg1 mi
12:54 am55 °FFog.No wind93%30.05 "Hg5 mi
12:27 am55 °FFog.No wind93%30.12 "Hg5 mi
12:18 am56 °FFog.No wind93%30.12 "Hg2 mi
11:54 pm
Fri, Sep 25
56 °FClear.No wind90%30.06 "Hg7 mi
10:54 pm57 °FClear.No wind90%30.06 "Hg8 mi
9:54 pm58 °FClear.3 mph87%30.06 "Hg10 mi
8:54 pm61 °FClear.No wind87%30.06 "Hg10 mi
7:54 pm63 °FClear.3 mph81%30.05 "Hg10 mi
6:54 pm69 °FClear.5 mph63%30.03 "Hg10 mi
5:54 pm75 °FSunny.6 mph50%30.02 "Hg10 mi
4:54 pm77 °FSunny.6 mph45%30.01 "Hg10 mi
3:54 pm78 °FSunny.7 mph45%30.01 "Hg10 mi
2:54 pm79 °FScattered clouds.6 mph45%30.02 "Hg10 mi
1:54 pm77 °FPartly sunny.8 mph48%30.03 "Hg10 mi
12:54 pm76 °FSunny.6 mph52%30.06 "Hg10 mi
11:54 am73 °FSunny.No wind62%30.06 "Hg10 mi
10:54 am69 °FSunny.3 mph68%30.07 "Hg10 mi
9:54 am60 °FPassing clouds.No wind90%30.09 "Hg10 mi
8:54 am55 °FFog.No wind96%30.08 "Hg6 mi
8:17 am54 °FFog.No wind97%30.11 "Hg5 mi
8:08 am53 °FFog.No wind96%30.11 "Hg2 mi
8:01 am53 °FFog.No wind93%30.11 "Hg1 mi
7:24 am51 °FFog.No wind96%30.10 "Hg0 mi
6:54 am50 °FFog.No wind96%30.05 "Hg0 mi
6:27 am51 °FFog.No wind96%30.08 "Hg0 mi
6:20 am50 °FFog.No wind96%30.08 "Hg1 mi
5:54 am49 °FFog.No wind97%30.02 "Hg1 mi
4:54 am49 °FFog.No wind97%30.00 "Hg0 mi
4:34 am50 °FFog.No wind96%30.04 "Hg1 mi
4:18 am50 °FFog.No wind96%30.04 "Hg4 mi
4:08 am50 °FFog.No wind96%30.04 "Hg1 mi
3:31 am50 °FFog.No wind96%30.04 "Hg0 mi
3:21 am50 °FFog.No wind96%30.03 "Hg1 mi
Weather by CustomWeather, © 2020

See weather overview